Weather History for Brownwood, TX

Change the Weather History Date:

Friday, October 4, 2013

  Actual Average (KABI) Record (KABI)
Temperature  
Mean Temperature 80 °F 69 °F  
Max Temperature 89 °F 81 °F 98 °F (1951)
Min Temperature 71 °F 58 °F 43 °F (1902)
Degree Days  
Heating Degree Days 0 1  
Month to date heating degree days 4  
Since 1 July heating degree days 15  
Cooling Degree Days 15 6  
Month to date cooling degree days 25  
Year to date cooling degree days 2296  
Growing Degree Days 30 (Base 50)    
Moisture  
Dew Point 66 °F    
Average Humidity 64    
Maximum Humidity 83    
Minimum Humidity 40    
Precipitation  
Precipitation 0.00 in 0.08 in 2.09 in (1986)
Month to date precipitation 0.34  
Year to date precipitation 19.54  
Sea Level Pressure  
Sea Level Pressure 29.87 in    
Wind  
Wind Speed 10 mph (SSE)    
Max Wind Speed 16 mph    
Max Gust Speed 24 mph    
Visibility 10 miles    
Events      
T = Trace of Precipitation, MM = Missing Value Source: NWS Daily Summary

Daily Weather History Graph

Daily Weather History Graph

Search for Another Location

Airport:

Trip Planner

Search our weather history database for the weather conditions in past years. The results will help you decide how hot, cold, wet, or windy it might be!

Date:

Astronomy

Oct. 04, 2013 Rise Set
Actual Time 7:31 AM CDT 7:16 PM CDT
Civil Twilight 7:07 AM CDT 7:40 PM CDT
Nautical Twilight 6:39 AM CDT 8:09 PM CDT
Astronomical Twilight 6:10 AM CDT 8:37 PM CDT
Moon 7:08 AM CDT (10/4) 7:02 PM CDT (10/4)
Length of Visible Light 12h 33m
Length of Day
11h 44m
Waning Crescent, 0% of the Moon is Illuminated
Oct 4
Waning Crescent
Oct 4
New
Oct 11
First Quarter
Oct 18
Full
Oct 26
Last Quarter

Hourly Weather History & Observations

Time (CDT) Temp. Heat Index Dew Point Humidity Pressure Visibility Wind Dir Wind Speed Gust Speed Precip Events Conditions
12:15 AM 77.0 °F - 66.2 °F 69% 29.86 in 10.0 mi SSE 10.4 mph - N/A   Clear
12:35 AM 75.2 °F - 64.4 °F 69% 29.86 in 10.0 mi SSE 9.2 mph - N/A   Clear
12:55 AM 75.2 °F - 66.2 °F 73% 29.86 in 10.0 mi SSE 10.4 mph 16.1 mph N/A   Clear
1:15 AM 75.2 °F - 66.2 °F 73% 29.87 in 10.0 mi SSE 10.4 mph - N/A   Clear
1:35 AM 75.2 °F - 66.2 °F 73% 29.87 in 10.0 mi SSE 8.1 mph - N/A   Clear
1:55 AM 75.2 °F - 66.2 °F 73% 29.87 in 10.0 mi SSE 10.4 mph - N/A   Clear
2:15 AM 75.2 °F - 66.2 °F 73% 29.87 in 10.0 mi SSE 9.2 mph - N/A   Clear
2:35 AM 73.4 °F - 66.2 °F 78% 29.88 in 10.0 mi SSE 6.9 mph - N/A   Clear
2:55 AM 73.4 °F - 66.2 °F 78% 29.87 in 10.0 mi SSE 6.9 mph - N/A   Clear
3:15 AM 73.4 °F - 66.2 °F 78% 29.88 in 10.0 mi SSE 6.9 mph - N/A   Clear
3:35 AM 71.6 °F - 66.2 °F 83% 29.88 in 10.0 mi SSE 5.8 mph - N/A   Clear
3:55 AM 71.6 °F - 66.2 °F 83% 29.88 in 10.0 mi SSE 5.8 mph - N/A   Clear
4:15 AM 71.6 °F - 66.2 °F 83% 29.87 in 10.0 mi SSE 6.9 mph - N/A   Clear
4:35 AM 71.6 °F - 66.2 °F 83% 29.87 in 10.0 mi SSE 6.9 mph - N/A   Clear
4:55 AM 71.6 °F - 66.2 °F 83% 29.88 in 10.0 mi SSE 8.1 mph - N/A   Clear
5:15 AM 71.6 °F - 66.2 °F 83% 29.88 in 10.0 mi SSE 9.2 mph - N/A   Clear
5:35 AM 71.6 °F - 66.2 °F 83% 29.88 in 10.0 mi SSE 8.1 mph - N/A   Scattered Clouds
5:55 AM 71.6 °F - 66.2 °F 83% 29.88 in 10.0 mi SSE 8.1 mph - N/A   Mostly Cloudy
6:15 AM 71.6 °F - 66.2 °F 83% 29.89 in 10.0 mi SSE 8.1 mph - N/A   Overcast
6:35 AM 71.6 °F - 66.2 °F 83% 29.89 in 10.0 mi SSE 8.1 mph - N/A   Mostly Cloudy
6:55 AM 71.6 °F - 66.2 °F 83% 29.89 in 10.0 mi SSE 9.2 mph - N/A   Mostly Cloudy
7:15 AM 71.6 °F - 66.2 °F 83% 29.89 in 10.0 mi SSE 5.8 mph - N/A   Overcast
7:35 AM 71.6 °F - 66.2 °F 83% 29.89 in 10.0 mi SSE 8.1 mph - N/A   Overcast
7:55 AM 71.6 °F - 66.2 °F 83% 29.89 in 10.0 mi SSE 9.2 mph - N/A   Overcast
8:15 AM 71.6 °F - 66.2 °F 83% 29.90 in 10.0 mi SSE 9.2 mph - N/A   Overcast
8:35 AM 73.4 °F - 68.0 °F 83% 29.90 in 10.0 mi SSE 8.1 mph - N/A   Mostly Cloudy
8:55 AM 73.4 °F - 68.0 °F 83% 29.91 in 10.0 mi SSE 9.2 mph 16.1 mph N/A   Partly Cloudy
9:15 AM 75.2 °F - 68.0 °F 78% 29.91 in 10.0 mi SSE 10.4 mph 16.1 mph N/A   Clear
9:35 AM 77.0 °F - 68.0 °F 74% 29.91 in 10.0 mi South 10.4 mph 17.3 mph N/A   Unknown
9:55 AM 77.0 °F - 68.0 °F 74% 29.91 in 10.0 mi South 13.8 mph 21.9 mph N/A   Clear
10:15 AM 77.0 °F - 68.0 °F 74% 29.92 in 10.0 mi South 11.5 mph 18.4 mph N/A   Unknown
10:35 AM 77.0 °F - 66.2 °F 69% 29.92 in 10.0 mi South 11.5 mph 18.4 mph N/A   Unknown
10:55 AM 78.8 °F - 68.0 °F 69% 29.92 in 10.0 mi South 12.7 mph - N/A   Unknown
11:15 AM 80.6 °F 82.7 °F 66.2 °F 61% 29.92 in 10.0 mi South 12.7 mph 19.6 mph N/A   Unknown
11:35 AM 82.4 °F 84.6 °F 66.2 °F 58% 29.91 in 10.0 mi South 13.8 mph 20.7 mph N/A   Unknown
11:55 AM 82.4 °F 84.6 °F 66.2 °F 58% 29.91 in 10.0 mi SSW 11.5 mph 18.4 mph N/A   Unknown
12:15 PM 82.4 °F 84.6 °F 66.2 °F 58% 29.91 in 10.0 mi South 16.1 mph - N/A   Unknown
12:35 PM 82.4 °F 84.6 °F 66.2 °F 58% 29.90 in 10.0 mi South 11.5 mph 20.7 mph N/A   Unknown
12:55 PM 84.2 °F 86.6 °F 66.2 °F 55% 29.90 in 10.0 mi South 13.8 mph 18.4 mph N/A   Unknown
1:15 PM 84.2 °F 86.6 °F 66.2 °F 55% 29.89 in 10.0 mi South 11.5 mph 20.7 mph N/A   Unknown
1:35 PM 84.2 °F 86.6 °F 66.2 °F 55% 29.88 in 10.0 mi SSW 16.1 mph 19.6 mph N/A   Unknown
1:55 PM 86.0 °F 88.2 °F 66.2 °F 51% 29.87 in 10.0 mi South 11.5 mph 18.4 mph N/A   Unknown
2:15 PM 86.0 °F 88.2 °F 66.2 °F 51% 29.86 in 10.0 mi South 13.8 mph - N/A   Unknown
2:35 PM 86.0 °F 87.3 °F 64.4 °F 48% 29.85 in 10.0 mi South 11.5 mph 21.9 mph N/A   Unknown
2:55 PM 86.0 °F 88.2 °F 66.2 °F 51% 29.85 in 10.0 mi South 16.1 mph 21.9 mph N/A   Unknown
3:15 PM 87.8 °F 89.4 °F 64.4 °F 46% 29.84 in 10.0 mi South 15.0 mph 20.7 mph N/A   Clear
3:35 PM 89.6 °F 91.1 °F 64.4 °F 43% 29.84 in 10.0 mi South 13.8 mph - N/A   Clear
3:55 PM 89.6 °F 91.1 °F 64.4 °F 43% 29.84 in 10.0 mi South 9.2 mph 17.3 mph N/A   Clear
4:15 PM 89.6 °F 91.1 °F 64.4 °F 43% 29.83 in 10.0 mi South 11.5 mph 24.2 mph N/A   Clear
4:35 PM 89.6 °F 90.1 °F 62.6 °F 40% 29.83 in 10.0 mi South 13.8 mph 19.6 mph N/A   Clear
4:55 PM 89.6 °F 90.1 °F 62.6 °F 40% 29.83 in 10.0 mi SSE 15.0 mph 20.7 mph N/A   Clear
5:15 PM 89.6 °F 91.1 °F 64.4 °F 43% 29.83 in 10.0 mi SSE 15.0 mph 18.4 mph N/A   Clear
5:35 PM 89.6 °F 90.1 °F 62.6 °F 40% 29.83 in 10.0 mi SSE 15.0 mph 20.7 mph N/A   Clear
5:55 PM 87.8 °F 88.5 °F 62.6 °F 43% 29.83 in 10.0 mi SSE 11.5 mph 19.6 mph N/A   Clear
6:15 PM 87.8 °F 88.5 °F 62.6 °F 43% 29.83 in 10.0 mi SSE 12.7 mph 18.4 mph N/A   Clear
6:35 PM 86.0 °F 86.6 °F 62.6 °F 45% 29.83 in 10.0 mi SSE 10.4 mph 18.4 mph N/A   Clear
6:55 PM 86.0 °F 86.6 °F 62.6 °F 45% 29.83 in 10.0 mi SSE 10.4 mph - N/A   Clear
7:15 PM 84.2 °F 85.0 °F 62.6 °F 48% 29.83 in 10.0 mi SSE 11.5 mph - N/A   Clear
7:35 PM 84.2 °F 85.6 °F 64.4 °F 51% 29.84 in 10.0 mi SSE 8.1 mph - N/A   Clear
7:55 PM 82.4 °F 83.9 °F 64.4 °F 54% 29.85 in 10.0 mi SE 8.1 mph - N/A   Clear
8:15 PM 82.4 °F 83.9 °F 64.4 °F 54% 29.85 in 10.0 mi SE 12.7 mph 17.3 mph N/A   Clear
8:35 PM 82.4 °F 83.9 °F 64.4 °F 54% 29.86 in 10.0 mi SE 10.4 mph 18.4 mph N/A   Clear
8:55 PM 82.4 °F 83.9 °F 64.4 °F 54% 29.86 in 10.0 mi SSE 10.4 mph 20.7 mph N/A   Clear
9:15 PM 82.4 °F 83.9 °F 64.4 °F 54% 29.87 in 10.0 mi SSE 9.2 mph 17.3 mph N/A   Clear
9:35 PM 80.6 °F 82.3 °F 64.4 °F 58% 29.88 in 10.0 mi SE 10.4 mph 16.1 mph N/A   Clear
9:55 PM 80.6 °F 82.3 °F 64.4 °F 58% 29.89 in 10.0 mi SSE 6.9 mph - N/A   Clear
10:15 PM 80.6 °F 82.7 °F 66.2 °F 61% 29.89 in 10.0 mi SSE 10.4 mph 16.1 mph N/A   Clear
10:35 PM 80.6 °F 82.7 °F 66.2 °F 61% 29.89 in 10.0 mi SSE 12.7 mph 16.1 mph N/A   Clear
10:55 PM 80.6 °F 82.7 °F 66.2 °F 61% 29.89 in 10.0 mi SSE 10.4 mph 18.4 mph N/A   Clear
11:15 PM 78.8 °F - 66.2 °F 65% 29.89 in 10.0 mi SSE 11.5 mph - N/A   Clear
11:35 PM 78.8 °F - 66.2 °F 65% 29.88 in 10.0 mi SSE 9.2 mph 16.1 mph N/A   Clear
11:55 PM 77.0 °F - 66.2 °F 69% 29.89 in 10.0 mi South 6.9 mph - N/A   Clear